Regional Weather Roundup
Issued by NWS Grand Forks, ND

Home | Current Version | Previous Version | Text Only | Print | Product List | Glossary Off
Versions: 1 2 3 4 5 6 7 8 9 10 11 12 13 14 15 16 17 18 19 20 21 22 23 24 25 26 27 28 29 30 31 32 33 34 35 36 37 38 39 40 41 42 43 44 45 46 47 48 49 50

000
ASUS43 KFGF 270910
RWRFGF
PRAIRIE TO PINES  WEATHER ROUNDUP
NATIONAL WEATHER SERVICE EASTERN NORTH DAKOTA/GRAND FORKS ND
300 AM CST SAT DEC 27 2014

 **SATELLITE DATA USED TO AUGMENT SKY COVER AT AUTOMATED STATIONS**
 *****  WEATHER ACROSS EASTERN NORTH DAKOTA  *****

CITY           SKY/WX    TMP DP  RH WIND       PRES   REMARKS
GRAND FORKS    CLOUDY     2  -1  88 W5        30.20S WCI  -8
GRAND FRKS AFB CLEAR     -2  -4  90 CALM      30.19F
GRAND FRKS NWS   N/A      3 N/A N/A MISG        N/A
DEVILS LAKE    CLOUDY     7   0  72 SW7       30.11R WCI  -5
FARGO          CLEAR      4   0  83 NW7       30.20S WCI  -8
WAHPETON ARPT  MOSUNNY    9   3  78 NW10      30.19S WCI  -6
$$

 ***** WEATHER ACROSS CENTRAL AND WESTERN NORTH DAKOTA  *****

CITY           SKY/WX    TMP DP  RH WIND       PRES   REMARKS
BISMARCK       PTCLDY     0  -3  87 SE3       30.14F
MINOT          CLOUDY    19  14  81 S8        30.04F WCI   9
JAMESTOWN      CLEAR      2  -2  83 W6        30.14S WCI  -9
MINOT AFB      FLURRIES  17  17  98 SW5       30.04F WCI  10
GARRISON         N/A     20  16  84 SW9       30.06F WCI   9
WILLISTON      PTCLDY    17  13  84 W10       30.09R WCI   5
DICKINSON      CLOUDY    22  17  81 W12       30.05S WCI  10
HETTINGER      CLOUDY    17  12  80 W7        30.09F WCI   8
$$

 *****  OTHER AIRPORT OBSERVATIONS IN OUR AREA  *****

CITY           SKY/WX    TMP DP  RH WIND       PRES   REMARKS
WALHALLA         N/A     -6  -9  84 S3        30.16F
GRAFTON AIRPOR NOT AVBL
VALLEY CITY AR FAIR       0   0 100 W6        30.16S WCI -12
CANDO          CLOUDY     7   3  85 SW6       30.11S WCI  -3
CAVALIER APRT  FAIR      -4  -8  84 SW6       30.17F WCI -16
GWINNER        SUNNY      9   5  85 N7        30.18S WCI  -3
SHEYENNE NWR     N/A      3  -1  82 CALM      29.95
ROLLA          CLOUDY     5   0  78 SW10      30.05F WCI -10
 ***** THE ABOVE OBSERVATIONS ARE NON NWS ARE NOT QUALITY
       CONTROLLED AND MAY MIS-REPORT RAIN FOR SNOW...
$$

  *****  WEATHER ACROSS NORTHERN MINNESOTA  *****

CITY           SKY/WX    TMP DP  RH WIND       PRES   REMARKS
FLAG ISLAND    CLOUDY     9   3  78 SW6       30.12S WCI  -1
WARROAD        CLOUDY    10   5  79 W6        30.14R WCI   1
ROSEAU         FLURRIES  10   5  79 W3        30.14S
HALLOCK        LGT SNOW   7   1  78 CALM      30.18S
THF RVR FALLS  CLOUDY     9   1  72 W5        30.15S WCI   0
BAUDETTE       CLOUDY    12   5  73 VRB3      30.11F
WASKISH        CLOUDY    16   9  73 CALM      30.11S
CROOKSTON      CLOUDY     7   3  85 NW5       30.20S WCI  -2
STEPHEN NDAWN    N/A      7   3  85 SW5         N/A  WCI  -2
GREENBUSH NDAW   N/A      7   3  85 SW7         N/A  WCI  -5
$$
  *****  WEATHER ACROSS CENTRAL AND WEST MINNESOTA  *****

CITY           SKY/WX    TMP DP  RH WIND       PRES   REMARKS
FOSSTON        LGT SNOW   9   7  92 W5        30.14S WCI   0
BEMIDJI        FLURRIES  13   9  82 NW5       30.11R WCI   5
PARK RAPIDS    CLOUDY    18  12  77 NW8       30.09S WCI   8
ELBOW LAKE     FAIR      10   7  87 NW12      30.13S WCI  -4
WADENA         CLOUDY    18  16  93 NW7       30.08F WCI   8
DETROIT LAKES  LGT SNOW  10  10 100 NW8       30.14S WCI  -1
MOORHEAD       CLEAR      5   3  92 NW5       30.20F WCI  -4
FERGUS FALLS   PTCLDY     9   3  78 N8        30.19S WCI  -4
MORRIS MN      CLOUDY    14  10  85 NW15      30.13R WCI  -1
STAPLES        CLOUDY    19  16  86 NW9       30.07F WCI   9
$$
  *****  WEATHER ELSEWHERE ACROSS MINNESOTA  *****

CITY           SKY/WX    TMP DP  RH WIND       PRES   REMARKS
DULUTH         CLOUDY    23  16  74 N8        30.03R WCI  14
INTRNTL FALLS  FLURRIES  13   6  74 W7        30.10F WCI   3
ELY            CLOUDY    16  12  86 CALM      30.06R
CLOQUET          N/A     21  16  79 NW10      30.05S WCI  10
WHEATON        MOCLDY     9   5  85 NW10      30.20R WCI  -6
BRAINERD       CLOUDY    21  14  74 N9        30.07F WCI  11
HIBBING        CLOUDY    19  12  74 NW9       30.08R WCI   8
ALEXANDRIA     CLOUDY    20  15  81 NW9       30.08S WCI   9
SAINT CLOUD    CLOUDY    25  17  72 N12       30.05F WCI  14
MINNEAPOLIS    LGT SNOW  26  23  88 N13       29.99F FOG     WCI  15
$$

  *****  WEATHER ACROSS SOUTH DAKOTA  *****

CITY           SKY/WX    TMP DP  RH WIND       PRES   REMARKS
SIOUX FALLS    LGT SNOW  20  17  88 N15       30.10R FOG     WCI   6
BROOKINGS      NOT AVBL
WATERTOWN      CLOUDY    14  11  87 NW12      30.12R WCI   0
HURON          CLOUDY    13   9  84 N6        30.19R WCI   4
SISSETON         N/A      8   4  83 N10       30.17S WCI  -6
ABERDEEN       PTCLDY     7   3  84 NW6       30.20R WCI  -3
MITCHELL       LGT SNOW  16  13  88 NW13      30.19R FOG     WCI   2
PIERRE         PTCLDY     9   7  92 SW8       30.17R WCI  -3
MOBRIDGE       CLOUDY     0  -4  83 N3        30.14S
RAPID CITY     CLOUDY     9   5  84 W6        30.12S WCI  -1
$$

  *****  SOME WEATHER IN NEARBY STATES *****

CITY           SKY/WX    TMP DP  RH WIND       PRES   REMARKS
GLASGOW MT     CLEAR     12   7  80 SE7       30.06F WCI   1
GREAT FALLS MT PTCLDY    16  10  77 S13       30.00F WCI   2
CHEYENNE WY    PTCLDY     6  -1  73 NW10      30.02R WCI  -9
SCOTTSBLUFF NE PTCLDY     7   5  91 NW7       30.13R WCI  -5
OMAHA NE       FLURRIES  27  24  89 NW14      30.10R WCI  16
DES MOINES IA  LGT SNOW  34  32  92 W12       29.99R FOG
DAVENPORT IA   CLOUDY    47  43  86 S14       29.90F
CHICAGO IL     CLOUDY    46  41  82 S10       29.98F
EAU CLAIRE WI  LGT SNOW  30  27  88 N6        29.95F VSB 3/4 WCI  24
LA CROSSE WI   LGT SNOW  33  32  96 NW6       29.90F FOG
$$

  *****  SOME NATIONAL WEATHER *****

CITY           SKY/WX    TMP DP  RH WIND       PRES   REMARKS
LA GUARDIA NY  MOCLDY    44  31  60 CALM      30.20F
RALEIGH NC     MOCLDY    33  30  88 CALM      30.28F
ATLANTA GA     CLEAR     41  34  76 NE5       30.27F
NEW ORLEANS LA CLOUDY    66  61  84 W14       30.14R
OKLAHOMA CITY  CLOUDY    36  26  67 N17       30.17R
ALBUQUERQUE NM CLEAR     17  12  80 E3        30.08R
SALT LAKE CITY PTCLDY    20  16  84 CALM      30.26R
LOS ANGELES CA CLEAR     51  20  29 CALM      30.21F
BOISE ID       CLEAR     22  16  78 SE7       30.32R WCI  13
SEATTLE WA     CLOUDY    41  35  79 SE6       30.30F
$$

*** WEATHER ACROSS MANITOBA...SASKATCHEWAN AND ONTARIO ***
                ***ONTARIO***

CITY           SKY/WX    TMP DP  RH WIND       PRES   REMARKS
GERALDTON      FLURRIES  14  12  92 NW2       30.05F
THUNDER BAY    NOT AVBL
SIOUX LOOKOUT  NOT AVBL
TORONTO        NOT AVBL
BIG TROUT LK   FLURRIES  -6  -9  84 W8        30.09F WCI -21
PICKLE LAKE    NOT AVBL
DRYDEN         FLURRIES   3   1  92 NW5       30.09F WCI  -6
KENORA         NOT AVBL
$$
                *** MANITOBA***

CITY           SKY/WX    TMP DP  RH WIND       PRES   REMARKS
BRANDON        CLOUDY     0  -6  78 W6        30.07F WCI -12
DAUPHIN        CLOUDY     5   0  78 W12       30.05F WCI -11
ISLAND LAKE    FLURRIES -11 -17  77 SW5       30.09S WCI -23
PILOT MOUND    NOT AVBL
THE PAS        PTCLDY   -18 -22  83 NW5       30.07S WCI -31
THOMPSON       CLEAR    -31 -36  75 W3        30.04S
WINNIPEG       FLURRIES   1  -4  78 S13       30.16F WCI -16
CHURCHILL      LGT SNOW  -4  -9  77 N17       29.99S WCI -26
GILLAM         CRYSTALS -26 -33  68 SW9       30.03S WCI -47
$$
                ***SASKATCHEWAN***

CITY           SKY/WX    TMP DP  RH WIND       PRES   REMARKS
ESTEVAN        CLOUDY    18  12  79 W10       30.04S WCI   6
KINDERSLEY     CLOUDY    10   9  92 SW9       29.94F WCI  -2
LLOYDMINSTER   FLURRIES  10   9  92 E5        29.94F WCI   2
PRINCE ALBERT  FLURRIES  -2  -6  84 N6        30.06R WCI -14
REGINA         NOT AVBL
YORKTON        FLURRIES   7   5  92 SW8       29.99F WCI  -6
N. BATTLEFORD  LGT SNOW  10   9  92 W2        30.02R
LA RONGE       CLEAR    -31 -36  75 CALM      30.12R
SASKATOON      FLURRIES  12   9  85 CALM      30.02S
SWIFT CURRENT  PTCLDY    10   9  92 SW14      29.93S WCI  -5
$$
NOTE: THESE ARE AUTOMATED STATIONS WITH LIMITED QUALITY CONTROL
      "FAIR" INDICATES FEW OR NO CLOUDS BELOW 12,000 FEET WITH NO
      SIGNIFICANT WEATHER AND/OR OBSTRUCTIONS TO VISIBILITY.
      SKY/WX - SKY CONDITION AND SIGNIFICANT WEATHER.
      TMP - AIR TEMPERATURE.    DP   - DEWPOINT TEMPERATURE.
      RH  - RELATIVE HUMIDITY.  PRES - PRESSURE.
      HX  - HEAT INDEX.         WCI  - WIND CHILL INDEX.
$


USA.gov is the U.S. government's official web portal to all federal, state and local government web resources and services.